Hourly Weather Kistel'nytsya

Today, 23 October, Friday

Time Temperature Precipitation Wind Pressure Humidity
00:00 +14°C° 0 mm 1 mps 750 mmHg 42%
01:00 +13°C° 0 mm 1 mps 750 mmHg 43%
02:00 +12°C° 0 mm 0 mps 750 mmHg 44%
03:00 +12°C° 0 mm 1 mps 749 mmHg 46%
04:00 +12°C° 0 mm 1 mps 749 mmHg 48%
05:00 +12°C° 0 mm 1 mps 749 mmHg 50%
06:00 +12°C° 0 mm 2 mps 749 mmHg 53%
07:00 +12°C° 0 mm 2 mps 749 mmHg 55%
08:00 +12°C° 0 mm 2 mps 749 mmHg 58%
09:00 +14°C° 0 mm 2 mps 749 mmHg 52%
10:00 +16°C° 0 mm 3 mps 748 mmHg 46%
11:00 +18°C° 0 mm 3 mps 748 mmHg 41%
12:00 +19°C° 0 mm 3 mps 748 mmHg 38%
13:00 +20°C° 0 mm 3 mps 748 mmHg 35%
14:00 +21°C° 0 mm 3 mps 747 mmHg 32%
15:00 +15°C° 0 mm 1 mps 746 mmHg 48%
16:00 +16°C° 0 mm 2 mps 746 mmHg 47%
17:00 +17°C° 0 mm 3 mps 747 mmHg 45%
18:00 +16°C° 0 mm 3 mps 747 mmHg 47%
19:00 +16°C° 0 mm 2 mps 747 mmHg 49%
20:00 +15°C° 0 mm 2 mps 747 mmHg 52%
21:00 +15°C° 0 mm 2 mps 746 mmHg 53%
22:00 +14°C° 0 mm 2 mps 746 mmHg 53%
23:00 +14°C° 0 mm 2 mps 746 mmHg 54%

Tomorrow, 24 October, Saturday

Time Temperature Precipitation Wind Pressure Humidity
00:00 +14°C° 0 mm 1 mps 746 mmHg 56%
01:00 +13°C° 0 mm 1 mps 746 mmHg 57%
02:00 +13°C° 0 mm 1 mps 746 mmHg 58%
03:00 +13°C° 0 mm 1 mps 745 mmHg 59%
04:00 +11°C° 0 mm 0 mps 745 mmHg 60%
05:00 +11°C° 0 mm 0 mps 745 mmHg 61%
06:00 +12°C° 0 mm 0 mps 745 mmHg 60%
07:00 +12°C° 0 mm 0 mps 745 mmHg 58%
08:00 +13°C° 0 mm 0 mps 745 mmHg 57%
09:00 +14°C° 0 mm 0 mps 745 mmHg 52%
10:00 +16°C° 0 mm 0 mps 745 mmHg 47%
11:00 +19°C° 0 mm 1 mps 745 mmHg 42%
12:00 +20°C° 0 mm 1 mps 745 mmHg 40%
13:00 +21°C° 0 mm 1 mps 745 mmHg 38%
14:00 +21°C° 0 mm 2 mps 745 mmHg 36%
15:00 +21°C° 0 mm 1 mps 745 mmHg 39%
16:00 +19°C° 0 mm 1 mps 745 mmHg 42%
17:00 +18°C° 0 mm 1 mps 745 mmHg 45%
18:00 +18°C° 0 mm 1 mps 745 mmHg 46%
19:00 +17°C° 0 mm 2 mps 746 mmHg 47%
20:00 +16°C° 0 mm 2 mps 746 mmHg 48%
21:00 +16°C° 0 mm 2 mps 747 mmHg 52%
22:00 +14°C° 0 mm 3 mps 747 mmHg 56%
23:00 +14°C° 0 mm 3 mps 747 mmHg 60%

Day after tomorrow, 25 October, Sunday

Time Temperature Precipitation Wind Pressure Humidity
00:00 +14°C° 0 mm 3 mps 747 mmHg 64%
01:00 +14°C° 0 mm 2 mps 748 mmHg 67%
02:00 +14°C° 0 mm 2 mps 748 mmHg 71%
03:00 +14°C° 0 mm 2 mps 748 mmHg 75%
04:00 +13°C° 0 mm 2 mps 748 mmHg 79%
05:00 +13°C° 0 mm 2 mps 749 mmHg 83%
06:00 +12°C° 0 mm 3 mps 749 mmHg 83%
07:00 +12°C° 0 mm 3 mps 749 mmHg 83%
08:00 +12°C° 0 mm 3 mps 749 mmHg 84%
09:00 +14°C° 0 mm 3 mps 750 mmHg 77%
10:00 +16°C° 0 mm 3 mps 750 mmHg 70%
11:00 +17°C° 0 mm 3 mps 750 mmHg 64%
12:00 +18°C° 0 mm 3 mps 750 mmHg 61%
13:00 +18°C° 0 mm 2 mps 750 mmHg 58%
14:00 +18°C° 0 mm 2 mps 750 mmHg 56%
15:00 +18°C° 0 mm 2 mps 750 mmHg 57%
16:00 +17°C° 0 mm 2 mps 750 mmHg 59%
17:00 +16°C° 0 mm 2 mps 749 mmHg 60%
18:00 +16°C° 0 mm 2 mps 750 mmHg 62%
19:00 +15°C° 0 mm 2 mps 750 mmHg 63%
20:00 +14°C° 0 mm 3 mps 750 mmHg 64%
21:00 +14°C° 0 mm 3 mps 750 mmHg 67%
22:00 +13°C° 0 mm 3 mps 750 mmHg 69%
23:00 +13°C° 0 mm 3 mps 750 mmHg 71%

, 26 October, Monday

Time Temperature Precipitation Wind Pressure Humidity
00:00 +12°C° 0 mm 3 mps 750 mmHg 74%
01:00 +12°C° 0 mm 3 mps 750 mmHg 76%
02:00 +11°C° 0 mm 3 mps 750 mmHg 78%
03:00 +11°C° 0 mm 3 mps 749 mmHg 80%
04:00 +11°C° 0 mm 3 mps 749 mmHg 81%
05:00 +11°C° 0 mm 3 mps 749 mmHg 83%
06:00 +11°C° 0 mm 3 mps 749 mmHg 81%
07:00 +11°C° 0 mm 4 mps 749 mmHg 79%
08:00 +12°C° 0 mm 4 mps 749 mmHg 77%
09:00 +13°C° 0 mm 5 mps 749 mmHg 72%
10:00 +15°C° 0 mm 5 mps 749 mmHg 66%
11:00 +16°C° 0 mm 5 mps 749 mmHg 61%
12:00 +17°C° 0 mm 5 mps 749 mmHg 58%
13:00 +19°C° 0 mm 6 mps 749 mmHg 56%
14:00 +19°C° 0 mm 6 mps 748 mmHg 54%
15:00 +19°C° 0 mm 5 mps 748 mmHg 57%
16:00 +18°C° 0 mm 4 mps 748 mmHg 60%
17:00 +17°C° 0 mm 3 mps 747 mmHg 63%
18:00 +17°C° 0 mm 4 mps 747 mmHg 64%
19:00 +17°C° 0 mm 4 mps 747 mmHg 66%
20:00 +15°C° 0 mm 4 mps 747 mmHg 67%
21:00 +15°C° 0 mm 4 mps 747 mmHg 70%
22:00 +15°C° 0 mm 5 mps 747 mmHg 72%
23:00 +14°C° 0 mm 5 mps 747 mmHg 75%

26 October, Monday

Time Temperature Precipitation Wind Pressure Humidity
00:00 +12°C° 0 mm 3 mps 750 mmHg 74%
01:00 +12°C° 0 mm 3 mps 750 mmHg 76%
02:00 +11°C° 0 mm 3 mps 750 mmHg 78%
03:00 +11°C° 0 mm 3 mps 749 mmHg 80%
04:00 +11°C° 0 mm 3 mps 749 mmHg 81%
05:00 +11°C° 0 mm 3 mps 749 mmHg 83%
06:00 +11°C° 0 mm 3 mps 749 mmHg 81%
07:00 +11°C° 0 mm 4 mps 749 mmHg 79%
08:00 +12°C° 0 mm 4 mps 749 mmHg 77%
09:00 +13°C° 0 mm 5 mps 749 mmHg 72%
10:00 +15°C° 0 mm 5 mps 749 mmHg 66%
11:00 +16°C° 0 mm 5 mps 749 mmHg 61%
12:00 +17°C° 0 mm 5 mps 749 mmHg 58%
13:00 +19°C° 0 mm 6 mps 749 mmHg 56%
14:00 +19°C° 0 mm 6 mps 748 mmHg 54%
15:00 +19°C° 0 mm 5 mps 748 mmHg 57%
16:00 +18°C° 0 mm 4 mps 748 mmHg 60%
17:00 +17°C° 0 mm 3 mps 747 mmHg 63%
18:00 +17°C° 0 mm 4 mps 747 mmHg 64%
19:00 +17°C° 0 mm 4 mps 747 mmHg 66%
20:00 +15°C° 0 mm 4 mps 747 mmHg 67%
21:00 +15°C° 0 mm 4 mps 747 mmHg 70%
22:00 +15°C° 0 mm 5 mps 747 mmHg 72%
23:00 +14°C° 0 mm 5 mps 747 mmHg 75%

27 October, Tuesday

Time Temperature Precipitation Wind Pressure Humidity
00:00 +14°C° 0 mm 5 mps 747 mmHg 77%
01:00 +14°C° 0 mm 4 mps 747 mmHg 79%
02:00 +14°C° 0 mm 4 mps 747 mmHg 81%
03:00 +13°C° 0 mm 4 mps 747 mmHg 81%
04:00 +13°C° 0 mm 4 mps 747 mmHg 81%
05:00 +13°C° 0 mm 4 mps 747 mmHg 81%
06:00 +13°C° 0 mm 4 mps 747 mmHg 80%
07:00 +14°C° 0 mm 4 mps 747 mmHg 78%
08:00 +14°C° 0 mm 4 mps 748 mmHg 77%
09:00 +17°C° 0 mm 4 mps 748 mmHg 72%
10:00 +18°C° 0 mm 4 mps 748 mmHg 67%
11:00 +20°C° 0 mm 4 mps 748 mmHg 62%
12:00 +20°C° 0 mm 4 mps 748 mmHg 59%
13:00 +21°C° 0 mm 4 mps 748 mmHg 57%
14:00 +21°C° 0 mm 4 mps 748 mmHg 55%
15:00 +20°C° 0 mm 4 mps 748 mmHg 58%
16:00 +19°C° 0 mm 4 mps 748 mmHg 61%
17:00 +18°C° 0 mm 3 mps 748 mmHg 64%
18:00 +17°C° 0 mm 3 mps 748 mmHg 67%
19:00 +16°C° 0 mm 3 mps 748 mmHg 70%
20:00 +14°C° 0 mm 3 mps 748 mmHg 73%
21:00 +14°C° 0 mm 3 mps 748 mmHg 77%
22:00 +13°C° 0 mm 3 mps 748 mmHg 82%
23:00 +13°C° 0 mm 3 mps 748 mmHg 86%

28 October, Wednesday

Time Temperature Precipitation Wind Pressure Humidity
00:00 +12°C° 0 mm 3 mps 748 mmHg 87%
01:00 +12°C° 0 mm 3 mps 748 mmHg 89%
02:00 +12°C° 0 mm 3 mps 748 mmHg 90%
03:00 +11°C° 0 mm 3 mps 748 mmHg 90%
04:00 +11°C° 0 mm 3 mps 748 mmHg 89%
05:00 +11°C° 0 mm 3 mps 747 mmHg 88%
06:00 +11°C° 0 mm 3 mps 748 mmHg 87%
07:00 +11°C° 0 mm 3 mps 748 mmHg 86%
08:00 +12°C° 0 mm 4 mps 748 mmHg 84%
09:00 +13°C° 0 mm 4 mps 748 mmHg 81%
10:00 +15°C° 0 mm 4 mps 748 mmHg 77%
11:00 +17°C° 0 mm 4 mps 748 mmHg 73%
12:00 +18°C° 0 mm 4 mps 748 mmHg 69%
13:00 +19°C° 0 mm 4 mps 747 mmHg 66%
14:00 +19°C° 0 mm 4 mps 747 mmHg 62%
15:00 +18°C° 0 mm 3 mps 747 mmHg 64%
16:00 +17°C° 0 mm 3 mps 747 mmHg 66%
17:00 +16°C° 0 mm 3 mps 747 mmHg 68%
18:00 +16°C° 0 mm 3 mps 747 mmHg 70%
19:00 +14°C° 0 mm 3 mps 747 mmHg 71%
20:00 +13°C° 0 mm 3 mps 747 mmHg 72%
21:00 +13°C° 0 mm 3 mps 747 mmHg 74%
22:00 +12°C° 0 mm 3 mps 747 mmHg 76%
23:00 +12°C° 0 mm 3 mps 747 mmHg 77%
Show more